[[{"header":{"parameterUnit":"m.s-1","parameterCategory":1,"la1":30.2991,"la2":30.254,"lo1":-89.0895,"lo2":-89.0444,"dy":0.0017,"dx":0.0017,"nx":28,"ny":28,"refTime":"2023-11-03T03:00:00:Z","depth":0,"parameterNumber":2,"parameterNumberName":"U-component_of_WINDS"},"data":[0,0,0,0,0,0,0,0,0,0,0,0,0,0,0,0,0,0,0,0,0,0,0,0,0,0,0,0,0,0,0,0,0,0,0,0,0,0,0,0,0,0,0,0,0,0,0,0,0,0,0,0,0,0,0,0,0,0,-1.842,-1.842,0,-1.8392,-1.8392,-1.8392,-1.8287,-1.8285,-1.8282,-1.828,-1.8254,-1.8256,-1.8257,0,0,0,0,0,0,0,0,0,0,0,0,0,-1.8386,-1.8387,-1.8421,-1.842,-1.842,-1.8392,-1.8392,-1.8392,-1.8288,-1.8285,-1.8282,-1.8279,-1.8254,-1.8256,-1.8257,0,0,0,0,0,0,0,0,0,0,0,0,0,-1.8384,-1.8387,-1.8421,-1.8364,-1.8359,-1.8392,-1.8392,-1.8392,-1.8288,-1.8285,-1.8281,-1.8278,-1.8253,-1.8255,-1.8258,-1.8344,0,0,-1.8265,-1.8266,0,0,0,0,0,0,0,0,-1.8384,-1.8385,-1.8373,-1.8368,-1.8363,-1.8339,-1.837,-1.8376,-1.8289,-1.8315,-1.828,-1.8276,-1.8286,-1.8285,-1.8288,-1.8343,-1.8342,-1.8265,-1.8266,-1.8267,-1.8268,0,0,0,0,0,0,0,-1.8384,-1.8386,-1.8409,-1.8373,-1.8367,-1.8341,-1.8337,-1.8371,-1.8321,-1.8313,-1.8305,-1.8303,-1.8282,-1.8286,-1.8286,-1.8341,-1.8265,-1.8267,-1.8268,-1.8269,-1.8464,-1.8468,0,0,0,0,0,0,-1.8392,-1.8387,-1.841,-1.8409,-1.8365,-1.8345,-1.834,-1.8351,-1.832,-1.8312,-1.8306,-1.8298,-1.8284,-1.8284,-1.8285,-1.8384,-1.8267,-1.827,-1.8271,-1.8461,-1.8465,-1.8469,0,0,0,0,0,0,-1.8392,-1.8395,-1.8411,-1.8395,-1.8396,-1.8349,-1.8362,-1.8352,-1.8355,-1.8315,-1.8306,-1.8319,-1.8281,-1.8282,-1.833,-1.8382,-1.8271,-1.8273,-1.8456,-1.8462,-1.8467,-1.8582,0,0,0,0,0,0,-1.8391,-1.8396,-1.8428,-1.8397,-1.8397,-1.8456,-1.8365,-1.8354,-1.8359,-1.8349,-1.8325,-1.8318,-1.8278,-1.8327,-1.8332,-1.8383,-1.8274,-1.8451,-1.8459,-1.8466,-1.8574,-1.8591,-1.8606,0,0,0,0,0,-1.839,-1.8462,-1.843,-1.8433,-1.8436,-1.846,-1.8459,-1.8412,-1.8364,-1.8396,-1.837,-1.8318,-1.8375,-1.8333,-1.8338,-1.839,-1.8448,-1.8457,-1.8465,-1.8567,-1.8588,-1.8606,0,0,0,0,0,0,-1.8502,-1.8457,-1.8421,-1.8485,-1.8477,-1.8442,-1.8481,-1.8436,-1.8442,-1.8432,-1.8373,-1.8369,-1.8425,-1.8412,-1.8366,-1.8471,-1.8403,-1.8413,-1.8478,-1.8498,-1.8514,-1.8517,-1.8276,0,0,0,0,0,-1.8533,-1.8556,-1.8516,-1.8576,-1.8573,-1.8528,-1.8537,-1.85,-1.849,-1.8486,-1.8464,-1.8457,-1.8472,-1.8484,-1.8497,-1.8571,-1.8564,-1.8609,-1.8625,-1.8639,-1.8649,-1.8687,-1.8706,-1.8497,-1.8497,-1.8497,0,0,-1.86,-1.8578,-1.8596,-1.8598,-1.8587,-1.8612,-1.8526,-1.8556,-1.8574,-1.8491,-1.8535,-1.8518,-1.8506,-1.8567,-1.8593,-1.8558,-1.8705,-1.865,-1.8661,-1.8663,-1.8698,-1.8717,-1.8735,-1.8503,-1.8502,-1.8501,0,0,-1.8733,-1.8719,-1.8767,-1.8758,-1.8742,-1.8711,-1.8723,-1.8695,-1.868,-1.8722,-1.866,-1.8681,-1.871,-1.8704,-1.8704,-1.8834,-1.8787,-1.884,-1.8925,-1.8963,-1.898,-1.8994,-1.9041,-1.9058,-1.8849,-1.885,-1.885,0,-1.8818,-1.8852,-1.8798,-1.8832,-1.8834,-1.8759,-1.8807,-1.8801,-1.8791,-1.8795,-1.8755,-1.8789,-1.8775,-1.8834,-1.8866,-1.8869,-1.8881,-1.8843,-1.8981,-1.8995,-1.9008,-1.9052,-1.907,-1.8856,-1.8855,-1.8855,-1.8854,0,-1.8958,-1.8982,-1.9023,-1.9014,-1.9021,-1.9062,-1.9014,-1.9028,-1.8991,-1.8964,-1.9009,-1.8989,-1.8996,-1.9007,-1.8972,-1.9061,-1.904,-1.8992,-1.8922,-1.9035,-1.9076,-1.9092,-1.8866,-1.8863,-1.8861,-1.886,0,0,-1.9163,-1.9121,-1.9137,-1.9132,-1.9108,-1.9126,-1.9164,-1.917,-1.9183,-1.9178,-1.9209,-1.9234,-1.9189,-1.919,-1.9152,-1.9186,-1.929,-1.9133,-1.9132,-1.9164,-1.9388,-1.9425,-1.9445,-1.9258,-1.9261,-1.9263,-1.9389,0,-1.929,-1.9351,-1.9303,-1.9373,-1.9395,-1.9323,-1.9355,-1.9345,-1.9321,-1.9337,-1.931,-1.9329,-1.9268,-1.9268,-1.9297,-1.9271,-1.9334,-1.9261,-1.9287,-1.9289,-1.9293,-1.9466,-1.9506,-1.9625,-1.9404,-1.9407,-1.9409,0,-1.9448,-1.9448,-1.9521,-1.9491,-1.9499,-1.9529,-1.953,-1.9545,-1.9532,-1.9512,-1.9512,-1.9466,-1.9501,-1.9432,-1.948,-1.9432,-1.9439,-1.9428,-1.9431,-1.9433,-1.9357,-1.9473,-1.9662,-1.9681,-1.9433,-1.9431,-1.9429,0,-1.9591,-1.961,-1.9655,-1.9653,-1.962,-1.9642,-1.963,-1.9613,-1.9619,-1.962,-1.9623,-1.9629,-1.9632,-1.9638,-1.9594,-1.9548,-1.9649,-1.9575,-1.9634,-1.9635,-1.966,-1.9659,-1.9853,-1.9663,-1.9663,-1.9662,-1.9662,0,-1.9739,-1.9787,-1.9719,-1.9747,-1.9798,-1.9741,-1.9793,-1.9773,-1.9758,-1.9782,-1.9719,-1.9743,-1.9683,-1.9701,-1.9667,-1.9713,-1.9714,-1.97,-1.9691,-1.9706,-1.9708,-1.9711,-1.9702,-1.9667,-1.9666,-1.9665,-1.9664,0,-1.9909,-1.9865,-1.991,-1.9874,-1.9866,-1.9905,-1.9874,-1.9899,-1.987,-1.9901,-1.9905,-1.986,-1.9877,-1.9833,-1.9845,-1.9822,-1.9887,-1.9864,-1.9892,-1.9885,-1.9947,-1.9942,-2.0151,-2.0176,-1.9969,-1.9971,-1.9972,0,-2.0007,-2.0041,-2.0008,-2.0019,-2.0009,-2.0027,-2.0032,-1.9977,-1.9986,-1.9972,-1.9999,-2.0011,-2.0017,-2.0049,-2.0018,-2.0026,-2.0003,-2.0076,-2.0004,-2.0019,-2.0005,-2.0004,-2.0008,-2.0091,-2.0094,-2.0096,-2.0097,0,-2.0186,-2.0162,-2.0171,-2.0174,-2.0181,-2.0181,-2.0176,-2.0188,-2.0129,-2.0142,-2.0158,-2.0163,-2.0174,-2.0187,-2.0188,-2.0175,-2.0128,-2.012,-2.0134,-2.0151,-2.0166,-2.0159,-1.9933,-2.0116,-2.0114,-2.0113,-2.0112,-2.0111,-2.0323,-2.035,-2.0331,-2.0343,-2.0333,-2.0329,-2.0351,-2.0323,-2.0335,-2.0339,-2.0306,-2.0329,-2.0314,-2.031,-2.0303,-2.0321,-2.0288,-2.0308,-2.0313,-2.032,-2.033,-2.0162,-2.0321,-2.032,-2.0319,-2.0319,-2.0318,0,-2.05,-2.0483,-2.0495,-2.0489,-2.0499,-2.045,-2.0442,-2.0454,-2.0475,-2.0464,-2.0471,-2.0489,-2.0501,-2.047,-2.0478,-2.0498,-2.0476,-2.0502,-2.0501,-2.0499,-2.0359,-2.0346,-2.0519,-2.0519,-2.0519,-2.0519,-2.0519,-2.0519,-2.0593,-2.0636,-2.0609,-2.0647,-2.0629,-2.0651,-2.065,-2.0647,-2.0637,-2.0661,-2.0669,-2.0648,-2.063,-2.0635,-2.0644,-2.0634,-2.064,-2.0674,-2.0658,-2.0528,-2.0508,-2.049,-2.0478,-2.0676,-2.0676,-2.0796,-2.0797,-2.0798]},{"header":{"parameterUnit":"m.s-1","parameterCategory":1,"la1":30.2991,"la2":30.254,"lo1":-89.0895,"lo2":-89.0444,"dy":0.0017,"dx":0.0017,"nx":28,"ny":28,"refTime":"2023-11-03T03:00:00:Z","depth":0,"parameterNumber":3,"parameterNumberName":"V-component_of_WINDS"},"data":[0,0,0,0,0,0,0,0,0,0,0,0,0,0,0,0,0,0,0,0,0,0,0,0,0,0,0,0,0,0,0,0,0,0,0,0,0,0,0,0,0,0,0,0,0,0,0,0,0,0,0,0,0,0,0,0,0,0,-1.0332,-1.0334,0,-1.0476,-1.0477,-1.0479,-1.0511,-1.051,-1.0509,-1.0508,-1.0654,-1.0659,-1.0664,0,0,0,0,0,0,0,0,0,0,0,0,0,-1.0085,-1.009,-1.0332,-1.0334,-1.0336,-1.0475,-1.0477,-1.0479,-1.0511,-1.051,-1.0509,-1.0508,-1.0653,-1.0659,-1.0664,0,0,0,0,0,0,0,0,0,0,0,0,0,-1.0207,-1.0091,-1.0332,-1.0369,-1.0373,-1.0475,-1.0477,-1.048,-1.0511,-1.051,-1.0508,-1.0507,-1.0651,-1.0658,-1.0665,-1.074,0,0,-1.0687,-1.0691,0,0,0,0,0,0,0,0,-1.02,-1.0216,-1.0361,-1.0366,-1.0372,-1.0474,-1.0444,-1.0567,-1.0512,-1.0459,-1.0508,-1.0506,-1.0596,-1.0607,-1.0637,-1.0747,-1.0753,-1.0688,-1.0692,-1.0696,-1.0698,0,0,0,0,0,0,0,-1.0192,-1.021,-1.0389,-1.0364,-1.037,-1.0378,-1.0393,-1.0467,-1.0534,-1.0464,-1.0466,-1.0483,-1.0598,-1.063,-1.0641,-1.0756,-1.0688,-1.0694,-1.0699,-1.0702,-1.0933,-1.0935,0,0,0,0,0,0,-1.0177,-1.0203,-1.0384,-1.0393,-1.028,-1.0383,-1.0401,-1.0443,-1.0533,-1.0546,-1.0484,-1.0484,-1.0619,-1.0633,-1.0646,-1.074,-1.0695,-1.0702,-1.0706,-1.0931,-1.0934,-1.0936,0,0,0,0,0,0,-1.0171,-1.0193,-1.0379,-1.0299,-1.0323,-1.0389,-1.0436,-1.0446,-1.0479,-1.0549,-1.0561,-1.0505,-1.0618,-1.0636,-1.0717,-1.0746,-1.0706,-1.0712,-1.0929,-1.0932,-1.0935,-1.0928,0,0,0,0,0,0,-1.0164,-1.0191,-1.022,-1.0299,-1.0327,-1.0447,-1.0438,-1.045,-1.0491,-1.0492,-1.0571,-1.0583,-1.0618,-1.0706,-1.0724,-1.0755,-1.0718,-1.0927,-1.0931,-1.0934,-1.0926,-1.0931,-1.0934,0,0,0,0,0,-1.0155,-1.0213,-1.0222,-1.0243,-1.0366,-1.0448,-1.0464,-1.0504,-1.0493,-1.0524,-1.0568,-1.0581,-1.0739,-1.0714,-1.0734,-1.0768,-1.0925,-1.093,-1.0934,-1.0925,-1.093,-1.0934,0,0,0,0,0,0,-1.0136,-1.0224,-1.0235,-1.032,-1.0376,-1.0454,-1.0493,-1.0508,-1.0569,-1.0568,-1.0614,-1.0631,-1.0709,-1.0746,-1.0716,-1.0845,-1.0832,-1.084,-1.0818,-1.0824,-1.0827,-1.0817,-1.0724,0,0,0,0,0,-1.0142,-1.0202,-1.0275,-1.0343,-1.0371,-1.0427,-1.0464,-1.049,-1.055,-1.0574,-1.0625,-1.0683,-1.0746,-1.0787,-1.0849,-1.0931,-1.0949,-1.0965,-1.0969,-1.0972,-1.0979,-1.1025,-1.1033,-1.0949,-1.0949,-1.0949,0,0,-1.0154,-1.0209,-1.0245,-1.0341,-1.0388,-1.0448,-1.0447,-1.0512,-1.0557,-1.0584,-1.0663,-1.0702,-1.077,-1.0852,-1.089,-1.0886,-1.1005,-1.0977,-1.0978,-1.0984,-1.103,-1.1038,-1.1044,-1.0952,-1.0951,-1.0951,0,0,-1.0208,-1.0256,-1.0318,-1.0364,-1.0435,-1.0472,-1.0486,-1.0561,-1.0588,-1.0668,-1.0689,-1.0744,-1.0851,-1.0899,-1.0937,-1.1006,-1.102,-1.1025,-1.1046,-1.109,-1.1097,-1.1103,-1.1128,-1.1136,-1.1031,-1.1031,-1.1031,0,-1.0215,-1.0307,-1.0347,-1.0411,-1.0452,-1.0479,-1.0541,-1.0584,-1.0672,-1.0699,-1.0693,-1.0828,-1.0875,-1.0968,-1.0985,-1.1015,-1.1033,-1.1017,-1.1093,-1.1099,-1.1105,-1.113,-1.1139,-1.1032,-1.1032,-1.1032,-1.1032,0,-1.0312,-1.0376,-1.0417,-1.05,-1.0546,-1.0608,-1.0657,-1.0699,-1.0719,-1.0756,-1.0837,-1.0894,-1.0968,-1.0992,-1.1013,-1.1088,-1.1082,-1.1083,-1.1071,-1.1113,-1.1137,-1.1146,-1.1032,-1.1032,-1.1032,-1.1032,0,0,-1.0359,-1.0463,-1.0477,-1.0515,-1.0594,-1.0644,-1.0707,-1.0779,-1.0814,-1.0872,-1.0926,-1.1016,-1.1017,-1.106,-1.1086,-1.1125,-1.1176,-1.1122,-1.1124,-1.113,-1.1262,-1.1261,-1.1272,-1.1185,-1.1187,-1.1189,-1.1257,0,-1.0423,-1.0538,-1.0574,-1.067,-1.0729,-1.0754,-1.0809,-1.0863,-1.0899,-1.0954,-1.0993,-1.1056,-1.1053,-1.1079,-1.1118,-1.1162,-1.1204,-1.1157,-1.1236,-1.1239,-1.1219,-1.1284,-1.1284,-1.1345,-1.1266,-1.1268,-1.1269,0,-1.0514,-1.0573,-1.0674,-1.0745,-1.0771,-1.082,-1.0888,-1.094,-1.1002,-1.1025,-1.1072,-1.1095,-1.1162,-1.1144,-1.1236,-1.1204,-1.1238,-1.1264,-1.1267,-1.1277,-1.1257,-1.1296,-1.1366,-1.1375,-1.1284,-1.1283,-1.1281,0,-1.0538,-1.0644,-1.0718,-1.0749,-1.0833,-1.0867,-1.0904,-1.0963,-1.1004,-1.1063,-1.109,-1.1156,-1.1192,-1.1243,-1.1283,-1.1266,-1.1371,-1.1357,-1.1392,-1.1391,-1.1414,-1.1412,-1.1491,-1.1435,-1.1435,-1.1434,-1.1434,0,-1.0606,-1.0667,-1.073,-1.0775,-1.0844,-1.0885,-1.0951,-1.0989,-1.1042,-1.1095,-1.112,-1.1169,-1.1219,-1.1274,-1.1306,-1.1377,-1.1393,-1.1414,-1.1421,-1.1412,-1.1409,-1.1436,-1.1433,-1.1437,-1.1436,-1.1436,-1.1435,0,-1.0646,-1.0691,-1.0773,-1.0845,-1.0865,-1.0912,-1.0974,-1.1019,-1.1055,-1.1121,-1.1139,-1.1196,-1.1263,-1.1307,-1.1392,-1.1413,-1.1491,-1.1497,-1.147,-1.1474,-1.1506,-1.1503,-1.1605,-1.1621,-1.1553,-1.1554,-1.1554,0,-1.0687,-1.0735,-1.0812,-1.0849,-1.0885,-1.0945,-1.0986,-1.1028,-1.107,-1.1142,-1.1178,-1.1246,-1.1303,-1.1408,-1.1456,-1.1521,-1.153,-1.1561,-1.154,-1.1529,-1.1531,-1.1528,-1.1533,-1.1565,-1.1565,-1.1566,-1.1566,0,-1.0755,-1.0774,-1.0833,-1.0899,-1.0947,-1.1001,-1.1055,-1.1083,-1.1134,-1.118,-1.1248,-1.1292,-1.1378,-1.1445,-1.1514,-1.1551,-1.1568,-1.1572,-1.1584,-1.1575,-1.1558,-1.1568,-1.148,-1.157,-1.157,-1.1569,-1.1569,-1.1569,-1.0798,-1.084,-1.0901,-1.0965,-1.101,-1.1059,-1.1104,-1.1146,-1.1203,-1.1277,-1.1297,-1.1368,-1.1427,-1.1522,-1.156,-1.1616,-1.1613,-1.1629,-1.1634,-1.1638,-1.1638,-1.1548,-1.1628,-1.1628,-1.1628,-1.1628,-1.1628,0,-1.0867,-1.0907,-1.0965,-1.1039,-1.1089,-1.1099,-1.1159,-1.12,-1.1262,-1.1316,-1.1371,-1.1448,-1.1513,-1.1566,-1.1633,-1.1667,-1.1676,-1.1683,-1.1682,-1.169,-1.1637,-1.162,-1.1675,-1.1675,-1.1675,-1.1675,-1.1675,-1.1675,-1.0909,-1.0982,-1.1008,-1.1103,-1.1143,-1.1212,-1.1245,-1.1291,-1.1334,-1.1419,-1.1473,-1.1507,-1.1561,-1.1631,-1.1691,-1.1705,-1.1728,-1.1734,-1.175,-1.1699,-1.1694,-1.1689,-1.1674,-1.1739,-1.1739,-1.1798,-1.1799,-1.1799]}]]